Weather History for Branson, MO

Change the Weather History Date:

Sunday, November 17, 2013

  Actual Average (KHRO) Record (KHRO)
Temperature  
Mean Temperature 64 °F 48 °F  
Max Temperature 75 °F 58 °F 78 °F (1905)
Min Temperature 53 °F 38 °F 8 °F (1959)
Degree Days  
Heating Degree Days 1 17  
Month to date heating degree days 238  
Since 1 July heating degree days 503  
Cooling Degree Days 0 0  
Month to date cooling degree days 0  
Year to date cooling degree days 1412  
Growing Degree Days 14 (Base 50)    
Moisture  
Dew Point 40 °F    
Average Humidity 38    
Maximum Humidity 73    
Minimum Humidity 20    
Precipitation  
Precipitation 0.00 in 0.15 in 2.18 in (1991)
Month to date precipitation 2.49  
Year to date precipitation 39.20  
Snow  
Snow 0.00 in 0.00 in 6.00 in (1926)
Month to date snowfall 0.0  
Since 1 July snowfall 0.1  
Since 1 September snowfall 0.1  
Snow Depth -    
Sea Level Pressure  
Sea Level Pressure 29.78 in    
Wind  
Wind Speed 13 mph (WSW)    
Max Wind Speed 21 mph    
Max Gust Speed 37 mph    
Visibility 10 miles    
Events      
T = Trace of Precipitation, MM = Missing Value Source: NWS Daily Summary

Daily Weather History Graph

Daily Weather History Graph

Search for Another Location

Airport:

Trip Planner

Search our weather history database for the weather conditions in past years. The results will help you decide how hot, cold, wet, or windy it might be!

Date:

Astronomy

Nov. 17, 2013 Rise Set
Actual Time 6:52 AM CST 5:02 PM CST
Civil Twilight 6:25 AM CST 5:30 PM CST
Nautical Twilight 5:53 AM CST 6:01 PM CST
Astronomical Twilight 5:23 AM CST 6:32 PM CST
Moon 5:19 PM CST (11/17) 6:47 AM CST (11/17)
Length of Visible Light 11h 05m
Length of Day
10h 09m
Full, 100% of the Moon is Illuminated
Nov 17
Full
Nov 25
Last Quarter
Dec 2
New
Dec 9
First Quarter
Dec 17
Full

Hourly Weather History & Observations

Time (CST) Temp. Dew Point Humidity Pressure Visibility Wind Dir Wind Speed Gust Speed Precip Events Conditions
12:15 AM 68.0 °F - N/A% 29.65 in 10.0 mi South 15.0 mph 18.4 mph N/A   Overcast
12:35 AM 69.8 °F - N/A% 29.64 in 10.0 mi SSW 10.4 mph 26.5 mph N/A   Mostly Cloudy
12:55 AM 69.8 °F - N/A% 29.64 in 10.0 mi SSW 11.5 mph 24.2 mph N/A   Mostly Cloudy
1:15 AM 69.8 °F - N/A% 29.63 in 10.0 mi SSW 12.7 mph 26.5 mph N/A   Mostly Cloudy
1:35 AM 69.8 °F - N/A% 29.63 in 10.0 mi SSW 10.4 mph 21.9 mph N/A   Scattered Clouds
1:55 AM 69.8 °F - N/A% 29.62 in 10.0 mi South 13.8 mph 23.0 mph N/A   Mostly Cloudy
2:15 AM 71.6 °F - N/A% 29.62 in 10.0 mi SSW 13.8 mph 21.9 mph N/A   Partly Cloudy
2:35 AM 71.6 °F - N/A% 29.61 in 10.0 mi SSW 18.4 mph 24.2 mph N/A   Clear
2:55 AM 71.6 °F - N/A% 29.61 in 10.0 mi South 11.5 mph 20.7 mph N/A   Clear
3:15 AM 71.6 °F - N/A% 29.61 in 10.0 mi South 12.7 mph 20.7 mph N/A   Clear
3:35 AM 71.6 °F - N/A% 29.60 in 10.0 mi South 11.5 mph 25.3 mph N/A   Scattered Clouds
3:55 AM 71.6 °F - N/A% 29.60 in 10.0 mi SSW 13.8 mph 24.2 mph N/A   Scattered Clouds
4:15 AM 71.6 °F - N/A% 29.59 in 10.0 mi South 13.8 mph 23.0 mph N/A   Partly Cloudy
4:35 AM 69.8 °F - N/A% 29.61 in 10.0 mi SSW 12.7 mph 20.7 mph N/A   Partly Cloudy
4:55 AM 69.8 °F - N/A% 29.60 in 10.0 mi SSW 12.7 mph 18.4 mph N/A   Mostly Cloudy
5:15 AM 71.6 °F - N/A% 29.60 in 10.0 mi SW 13.8 mph 26.5 mph N/A   Scattered Clouds
5:35 AM 71.6 °F - N/A% 29.58 in 10.0 mi SSW 13.8 mph 24.2 mph N/A   Clear
6:45 AM 71.6 °F 62.6 °F 73% 29.57 in 10.0 mi SSW 16.1 mph 24.2 mph N/A   Scattered Clouds
7:55 AM 71.6 °F 62.6 °F 73% 29.60 in 10.0 mi SSW 13.8 mph 21.9 mph N/A   Scattered Clouds
8:55 AM 73.4 °F 60.8 °F 65% 29.62 in 10.0 mi WSW 16.1 mph 27.6 mph N/A   Scattered Clouds
9:45 AM 73.4 °F 55.4 °F 53% 29.66 in 10.0 mi WSW 18.4 mph 31.1 mph N/A   Mostly Cloudy
10:45 AM 75.2 °F 53.6 °F 47% 29.69 in 10.0 mi WSW 20.7 mph 33.4 mph N/A   Mostly Cloudy
11:45 AM 73.4 °F 42.8 °F 33% 29.71 in 10.0 mi WNW 20.7 mph 36.8 mph N/A   Partly Cloudy
12:45 PM 71.6 °F 33.8 °F 25% 29.74 in 10.0 mi WNW 17.3 mph 26.5 mph N/A   Partly Cloudy
1:45 PM 69.8 °F 30.2 °F 23% 29.77 in 10.0 mi WNW 15.0 mph 25.3 mph N/A   Clear
2:45 PM 68.0 °F 28.4 °F 23% 29.79 in 10.0 mi WNW 12.7 mph 19.6 mph N/A   Clear
3:45 PM 68.0 °F 30.2 °F 24% 29.81 in 10.0 mi WNW 9.2 mph 17.3 mph N/A   Clear
4:50 PM 64.4 °F 30.2 °F 28% 29.86 in 10.0 mi WNW 10.4 mph 16.1 mph N/A   Clear
5:47 PM 62.6 °F 32.0 °F 32% 29.90 in 10.0 mi WNW 11.5 mph - N/A   Clear
6:52 PM 60.8 °F 26.6 °F 27% 29.93 in 10.0 mi West 12.7 mph - N/A   Clear
7:57 PM 59.0 °F 28.4 °F 31% 29.97 in 10.0 mi WNW 13.8 mph - N/A   Clear
8:15 PM 59.0 °F - N/A% 29.98 in 10.0 mi WNW 9.2 mph 17.3 mph N/A   Clear
8:35 PM 59.0 °F - N/A% 29.99 in 10.0 mi WNW 12.7 mph 18.4 mph N/A   Clear
8:47 PM 59.0 °F 17.6 °F 20% 29.99 in 10.0 mi NW 15.0 mph 26.5 mph N/A   Clear
8:55 PM 57.2 °F - N/A% 30.00 in 10.0 mi WNW 11.5 mph 19.6 mph N/A   Clear
9:15 PM 57.2 °F - N/A% 30.01 in 10.0 mi NW 9.2 mph 19.6 mph N/A   Clear
9:35 PM 57.2 °F - N/A% 30.02 in 10.0 mi NW 11.5 mph 16.1 mph N/A   Clear
9:55 PM 55.4 °F - N/A% 30.03 in 10.0 mi NW 10.4 mph 18.4 mph N/A   Clear
10:15 PM 55.4 °F - N/A% 30.04 in 10.0 mi NW 10.4 mph - N/A   Clear
10:35 PM 53.6 °F - N/A% 30.05 in 10.0 mi NW 12.7 mph 16.1 mph N/A   Clear
10:55 PM 53.6 °F - N/A% 30.06 in 10.0 mi WNW 9.2 mph 18.4 mph N/A   Clear
11:15 PM 53.6 °F - N/A% 30.07 in 10.0 mi NW 9.2 mph - N/A   Partly Cloudy
11:35 PM 53.6 °F - N/A% 30.07 in 10.0 mi NW 12.7 mph 17.3 mph N/A   Scattered Clouds
11:55 PM 53.6 °F - N/A% 30.08 in 10.0 mi WNW 11.5 mph - N/A   Partly Cloudy